Location: Bretagne
(43.8474°N, 0.4650°W)
Time: 07:17:00
(UTC+00:00)

MOS 1 Rocket - Pass Details

Date: 15 January 2026
Orbit: 608 x 815 km, 97.4° (Epoch: 10 February)

Event Time Altitude Azimuth Distance (km) Brightness Sun altitude
Rises 17:36:21 0° 167° (SSE) 3,316 6.9 -8.4°
Reaches altitude 10° 17:38:43 10° 168° (SSE) 2,377 6.2 -8.8°
Maximum altitude 17:44:01 87° 257° (WSW) 793 3.6 -9.7°
Drops below altitude 10° 17:49:08 10° 347° (NNW) 2,298 5.9 -10.6°
Sets 17:51:23 0° 348° (NNW) 3,197 6.6 -10.9°
